User: anonymous   Login
Location: Antichan
(42.9728°N, 0.6667°E)
Time: 12:19:57
(UTC+00:00)
Language:

Cosmos 1666 - Orbit

View from above orbital plane
View from above orbital plane
View from above satellite
View from above satellite

Ground track
Ground track

The orbit data is extracted from the following two-line orbital elements,

1 15889U 85058A   20296.83334453 +.00000886 +00000-0 +40545-4 0  9993
2 15889 082.4902 220.2526 0018243 121.0361 239.2668 15.19040432927552
Epoch (UTC): 22 October 2020 20:00:00
Eccentricity: 0.0018243
inclination: 82.4902°
perigee height: 496 km
apogee height: 521 km
right ascension of ascending node: 220.2526°
argument of perigee: 121.0361°
revolutions per day: 15.19040432
mean anomaly at epoch: 239.2668°
orbit number at epoch: 92755

The dashed part of the orbit path shows where the satellite is in the earth's shadow,  

DLR